Tracking 27112 objects as of 28-Mar-2023
HD Live streaming from Space Station
objects crossing your sky now

GLOBAL-15

Track GLOBAL-15 now!
10-day predictions


NORAD ID: 49470
Int'l Code: 2021-106B
Perigee: 445.3 km
Apogee: 463.3 km
Inclination: 42.0 °
Period: 93.5 minutes
Semi major axis: 6825 km
RCS: Unknown
Launch date: November 18, 2021
Source: United States (US)
Launch site: Rocket Lab Launch Complex (RLLC)
Your satellite tracking list
Your tracking list is empty




NASA's NSSDC Master Catalog

Two Line Element Set (TLE):
1 49470U 21106B   23085.28753148  .00020465  00000-0  51133-3 0  9993
2 49470  42.0103  14.5102 0013180 156.6255 203.5186 15.39629056 76028
Source of the keplerian elements: AFSPC